Location: Helsinki
(60.1699°N, 24.9384°E)
Time: 23:23:08
(UTC+02:00)

Altair - Pass Details

Date: 30 October 2020
Orbit: 1502 x 1682 km, 47.2° (Epoch: 25 November)

Event Time Altitude Azimuth Distance (km) Brightness Sun altitude
Rises 09:11:15 0° 265° (W) 4,708 9.7 8.2°
Reaches altitude 10° 09:14:36 10° 256° (WSW) 3,748 9.3 8.5°
Maximum altitude 09:22:48 34° 197° (SSW) 2,397 9.1 9.1°
Drops below altitude 10° 09:31:15 10° 137° (SE) 3,868 12.7 9.8°
Sets 09:34:46 0° 129° (SE) 4,876 11.9 10.1°
